Change the Weather History Date:

Friday, January 10, 2014

  Actual Average Record
Temperature  
Mean Temperature 21 °F -  
Max Temperature 35 °F 32 °F 52 °F (1963)
Min Temperature 7 °F 15 °F -5 °F (1968)
Degree Days  
Heating Degree Days 44    
Moisture  
Dew Point 24 °F    
Average Humidity 88    
Maximum Humidity 96    
Minimum Humidity 79    
Precipitation  
Precipitation 0.01 in - - ()
Sea Level Pressure  
Sea Level Pressure 30.44 in    
Wind  
Wind Speed 1 mph (SSW)    
Max Wind Speed 9 mph    
Max Gust Speed -    
Visibility 6 miles    
Events Fog , Snow    
Averages and records for this station are not official NWS values.
T = Trace of Precipitation, MM = Missing Value Source: NWS Daily Summary

Daily Weather History Graph

Daily Weather History Graph

Search for Another Location

Airport or City:

Trip Planner

Search our weather history database for the weather conditions in past years. The results will help you decide how hot, cold, wet, or windy it might be!

Date:

Astronomy

Jan. 10, 2014 Rise Set
Actual Time 7:13 AM EST 4:31 PM EST
Civil Twilight 6:42 AM EST 5:03 PM EST
Nautical Twilight 6:07 AM EST 5:38 PM EST
Astronomical Twilight 5:33 AM EST 6:12 PM EST
Moon 12:35 PM EST (1/10) 2:16 AM EST (1/10)
Length of Visible Light 10h 20m
Length of Day
9h 17m
Waxing Gibbous, 75% of the Moon is Illuminated
Jan 10
Waxing Gibbous
Jan 15
Full
Jan 24
Last Quarter
Jan 30
New
Feb 6
First Quarter

Hourly Weather History & Observations

Time (EST) Temp. Windchill Dew Point Humidity Pressure Visibility Wind Dir Wind Speed Gust Speed Precip Events Conditions
12:56 AM 7.0 °F - 3.9 °F 87% 30.64 in 10.0 mi Calm Calm - N/A   Clear
1:56 AM 8.1 °F - 3.9 °F 83% 30.64 in 10.0 mi Calm Calm - N/A   Clear
2:56 AM 7.0 °F - 3.9 °F 87% 30.63 in 10.0 mi Calm Calm - N/A   Clear
3:56 AM 10.9 °F - 7.0 °F 84% 30.62 in 9.0 mi Calm Calm - N/A   Mostly Cloudy
4:56 AM 14.0 °F - 10.0 °F 84% 30.59 in 9.0 mi Calm Calm - N/A   Overcast
5:56 AM 16.0 °F - 10.9 °F 81% 30.57 in 9.0 mi Calm Calm - N/A   Overcast
6:39 AM 17.6 °F - 12.2 °F 79% 30.51 in 1.8 mi Calm Calm - 0.00 in Snow Light Snow
6:56 AM 18.0 °F - 15.1 °F 88% 30.56 in 1.5 mi Calm Calm - 0.00 in Snow Light Snow
7:05 AM 17.6 °F - 15.8 °F 93% 30.50 in 1.5 mi Calm Calm - 0.00 in Snow Light Snow
7:43 AM 19.4 °F - 17.6 °F 93% 30.49 in 0.5 mi Calm Calm - 0.01 in Fog , Snow Light Snow
7:56 AM 19.9 °F - 17.1 °F 89% 30.56 in 2.0 mi Calm Calm - 0.01 in Snow Light Snow
8:03 AM 19.4 °F - 17.6 °F 93% 30.50 in 1.8 mi Calm Calm - 0.00 in Snow Light Snow
8:11 AM 21.2 °F - 17.6 °F 86% 30.49 in 2.5 mi Calm Calm - 0.00 in Snow Light Snow
8:19 AM 21.2 °F - 17.6 °F 86% 30.49 in 1.0 mi Calm Calm - 0.00 in Snow Light Snow
8:47 AM 21.2 °F - 19.4 °F 93% 30.49 in 5.0 mi Calm Calm - 0.00 in   Overcast
8:56 AM 23.0 °F 18.4 °F 19.9 °F 88% 30.54 in 5.0 mi SSW 3.5 mph - 0.00 in   Overcast
9:28 AM 24.8 °F - 21.2 °F 86% 30.49 in 7.0 mi Calm Calm - N/A   Overcast
9:42 AM 24.8 °F 20.5 °F 21.2 °F 86% 30.49 in 7.0 mi SSW 3.5 mph - N/A   Overcast
9:56 AM 25.0 °F 20.7 °F 21.0 °F 85% 30.54 in 8.0 mi South 3.5 mph - N/A   Overcast
10:56 AM 27.0 °F 18.0 °F 23.0 °F 85% 30.52 in 7.0 mi SW 9.2 mph - N/A   Overcast
11:13 AM 28.4 °F 24.6 °F 24.8 °F 86% 30.45 in 7.0 mi SW 3.5 mph - N/A   Overcast
11:56 AM 28.9 °F 25.2 °F 24.1 °F 82% 30.48 in 7.0 mi South 3.5 mph - N/A   Overcast
12:15 PM 28.4 °F 23.3 °F 24.8 °F 86% 30.41 in 6.0 mi SSW 4.6 mph - N/A   Overcast
12:48 PM 30.2 °F 26.7 °F 24.8 °F 80% 30.40 in 7.0 mi WSW 3.5 mph - N/A   Overcast
12:56 PM 30.0 °F 26.5 °F 26.1 °F 85% 30.45 in 7.0 mi West 3.5 mph - N/A   Overcast
1:26 PM 30.2 °F 26.7 °F 26.6 °F 86% 30.38 in 6.0 mi Variable 3.5 mph - 0.00 in   Overcast
1:56 PM 32.0 °F 27.5 °F 28.0 °F 85% 30.43 in 7.0 mi SSW 4.6 mph - 0.00 in   Overcast
2:56 PM 34.0 °F 29.8 °F 28.9 °F 82% 30.42 in 7.0 mi South 4.6 mph - N/A   Overcast
3:23 PM 33.8 °F 30.8 °F 30.2 °F 87% 30.36 in 7.0 mi SSW 3.5 mph - N/A   Overcast
3:56 PM 34.0 °F - 30.9 °F 89% 30.40 in 7.0 mi Calm Calm - N/A   Overcast
4:44 PM 33.8 °F - 30.2 °F 87% 30.34 in 6.0 mi Calm Calm - N/A   Overcast
4:56 PM 33.1 °F - 30.9 °F 92% 30.39 in 6.0 mi Calm Calm - N/A   Mostly Cloudy
5:10 PM 33.8 °F - 30.2 °F 87% 30.34 in 7.0 mi Calm Calm - N/A   Mostly Cloudy
5:54 PM 33.8 °F 28.6 °F 32.0 °F 93% 30.34 in 7.0 mi SW 5.8 mph - N/A   Overcast
5:56 PM 35.1 °F 29.3 °F 32.0 °F 89% 30.39 in 7.0 mi SW 6.9 mph - N/A   Overcast
6:56 PM 34.0 °F 28.8 °F 32.0 °F 92% 30.39 in 7.0 mi SSW 5.8 mph - N/A   Overcast
7:20 PM 33.8 °F 29.6 °F 32.0 °F 93% 30.34 in 5.0 mi SSW 4.6 mph - N/A   Overcast
7:56 PM 35.1 °F 31.0 °F 33.1 °F 92% 30.38 in 5.0 mi SSW 4.6 mph - N/A   Overcast
8:14 PM 35.6 °F - 33.8 °F 93% 30.33 in 5.0 mi Calm Calm - N/A   Overcast
8:38 PM 35.6 °F - 33.8 °F 93% 30.32 in 5.0 mi Calm Calm - N/A   Overcast
8:56 PM 35.1 °F - 33.1 °F 92% 30.37 in 4.0 mi Calm Calm - N/A   Overcast
9:19 PM 35.6 °F - 33.8 °F 93% 30.31 in 4.0 mi Calm Calm - N/A   Overcast
9:56 PM 35.1 °F - 34.0 °F 96% 30.35 in 3.0 mi Calm Calm - N/A   Overcast
10:28 PM 35.6 °F - 33.8 °F 93% 30.29 in 3.0 mi Calm Calm - N/A   Overcast
10:56 PM 35.1 °F - 34.0 °F 96% 30.33 in 3.0 mi Calm Calm - N/A   Overcast
11:53 PM 35.6 °F - 33.8 °F 93% 30.26 in 2.5 mi Calm Calm - N/A   Overcast
11:56 PM 35.1 °F - 34.0 °F 96% 30.31 in 2.5 mi Calm Calm - N/A   Overcast